Location: La Bilong�re
(48.1297°N, 1.4584°W)
Time: 21:56:30
(UTC+00:00)

Daily predictions for brighter satellites

Satellite Brightness Start Highest point End
(mag) Time Altitude Azimuth Time Altitude Azimuth Time Altitude Azimuth
USA 307 3.7 18:16:24 10° W 18:20:34 46° NNW 18:24:42 10° ENE
FALCON 9 DEB 3.5 18:19:07 10° WNW 18:22:29 50° NNE 18:25:50 10° E
ATLAS CENTAUR R/B 2.7 18:21:16 10° SSE 18:23:36 16° ESE 18:25:56 10° ENE
USA 306 3.7 18:19:52 10° W 18:23:59 45° NNW 18:28:06 10° ENE
FALCON 9 DEB 4.1 18:23:29 10° WNW 18:26:24 33° N 18:29:20 10° ENE
Cosmos 44 Rocket 3.5 18:21:13 10° NW 18:26:29 75° NE 18:31:41 10° SE
ERS-2 3.0 18:24:47 10° NE 18:28:00 29° E 18:31:13 10° SSE
FALCON 9 DEB 4.1 18:25:23 10° WNW 18:28:21 34° N 18:31:20 10° ENE
Cosmos 1844 Rocket 3.2 18:23:35 10° NNW 18:28:48 39° NE 18:34:00 10° ESE
Okean-O 2.7 18:24:29 10° SSE 18:28:50 56° ENE 18:33:10 10° N
Cosmos 2084 Rocket 3.6 18:24:35 10° NW 18:28:53 61° NE 18:33:18 10° SE
CSL-04 Rocket 4.1 18:25:09 10° SE 18:30:20 42° ENE 18:35:30 10° N
USA 308 3.8 18:27:05 10° W 18:31:12 44° NNW 18:35:18 10° ENE
CSL-04 Debris 4.5 18:26:30 10° SE 18:31:39 46° ENE 18:36:52 10° N
Cosmos 1271 Rocket 3.1 18:29:53 10° NNW 18:33:37 68° W 18:37:20 10° S
Cosmos 1666 4.4 18:32:24 10° ESE 18:34:11 13° E 18:35:57 10° NE
Cosmos 1503 Rocket 4.2 18:30:31 10° NNW 18:35:34 48° ENE 18:40:34 10° SE
HJ-1C 3.8 18:33:35 10° SE 18:36:43 40° ENE 18:39:51 10° N
H-2A R/B 3.6 18:33:06 10° N 18:36:55 38° WNW 18:40:44 10° SW
SKYMED 2 3.9 18:33:46 10° N 18:38:06 70° WNW 18:42:25 10° SSW
MOS 1 Rocket 4.1 18:34:10 10° N 18:39:09 65° WNW 18:44:22 10° SSW
PSLV R/B 4.1 18:35:11 10° NNE 18:39:11 50° E 18:43:08 10° S
Cosmos 1844 4.2 18:35:09 10° NNW 18:40:38 41° NE 18:46:01 10° ESE
Cosmos 1470 Rocket 3.9 18:37:39 10° SSE 18:41:55 46° E 18:46:11 10° NNE
CZ-4B R/B 1.9 18:40:12 10° N 18:43:12 56° WNW 18:46:12 10° SSW
Cosmos 2360 Rocket 2.7 18:39:04 10° S 18:44:10 36° ESE 18:49:19 10° NE
Cosmos 2278 Rocket 3.9 18:42:02 10° N 18:45:27 16° NE 18:48:36 11° ENE
Cosmos 1602 3.7 18:41:39 10° S 18:45:31 75° E 18:49:27 10° NNE
Ariane Rocket 4.3 18:42:10 10° ESE 18:45:57 22° ENE 18:49:46 10° N
Meteor 1-19 Rocket 4.3 18:42:40 10° N 18:48:40 78° ENE 18:54:27 10° SSE
Cosmos 1500 3.5 18:49:07 10° SSE 18:52:37 40° E 18:56:09 10° NNE
Meteor 2-4 Rocket 4.0 18:47:29 10° N 18:53:11 53° ENE 18:58:58 10° SSE
Cosmos 1703 Rocket 4.1 18:49:23 10° N 18:53:28 35° ENE 18:57:28 10° SE
Cosmos 2333 Rocket 3.4 18:50:33 10° SE 18:54:33 20° E 18:58:36 10° NE
Cosmos 1689 Rocket 1.9 18:53:43 10° NNE 18:56:35 64° ESE 18:59:26 10° S
SL-08 RB Rocket 3.7 18:52:58 10° SSE 18:57:24 58° ENE 19:01:54 10° N
Meteor 2-12 Rocket 4.4 18:52:08 10° S 18:58:05 64° E 19:04:07 10° NNE
ERBS 3.3 18:56:05 10° W 18:59:15 41° NNW 19:02:18 11° NE
Cosmos 1980 Rocket 4.0 18:55:22 10° WSW 19:00:22 31° NW 19:05:26 10° NNE
Cosmos 1933 Rocket 3.7 18:58:37 10° SSE 19:02:49 50° E 19:07:04 10° NNE
Aureole 2 Rocket 1.6 19:01:39 10° NNW 19:04:12 76° WSW 19:06:40 10° SSE
Cosmos 1666 Rocket 4.5 19:00:10 10° SSW 19:04:23 51° WNW 19:08:37 10° N
Cosmos 1862 Rocket 4.0 19:01:09 10° NNW 19:05:37 66° W 19:10:03 10° S
Cosmos 2242 Rocket 3.6 19:07:07 10° N 19:11:37 60° ENE 19:16:01 10° SSE
Resurs 01 Rocket 3.3 19:12:41 15° ENE 19:12:41 15° ENE 19:15:10 10° NNE
Cosmos 2322 Rocket 2.3 19:08:22 10° SSW 19:13:59 82° WNW 19:19:39 10° NNE
Cosmos 1461 4.4 19:09:42 10° WSW 19:14:13 41° NW 19:18:43 10° NNE
Abrixas rocket 1.4 19:13:06 10° W 19:15:35 82° N 19:16:07 50° ENE
Lacrosse 4 Rocket 3.2 19:13:04 10° SSE 19:14:29 16° SE 19:14:29 16° SE
FALCON 9 DEB 4.1 19:16:41 10° WNW 19:19:37 32° N 19:20:46 24° NE
Helios 1A Rocket 3.2 19:15:46 10° S 19:19:47 68° WSW 19:23:50 10° NNW
Nadezhda 3 Rocket 4.4 19:14:09 10° NNW 19:20:29 70° W 19:26:48 10° S
YAOGAN 1 3.9 19:16:32 10° S 19:20:38 42° W 19:24:46 10° NNW
COSMOS 2428 3.6 19:19:56 10° SSE 19:24:29 25° ESE 19:24:51 25° E
SJ-6B 3.2 19:22:30 23° SE 19:24:39 45° ENE 19:28:33 10° N
ASTEX 1 3.9 19:22:43 10° NNE 19:27:13 35° E 19:30:12 18° SE
Cosmos 2154 Rocket 4.4 19:21:41 10° SSW 19:27:51 68° WNW 19:34:04 10° N
GP-B 3.0 19:24:10 10° S 19:28:36 87° E 19:33:04 10° N
Meteor 1-14 Rocket 4.2 19:23:29 10° SSW 19:29:03 84° W 19:34:38 10° N
Cosmos 2219 Rocket 2.7 19:26:25 10° SSE 19:31:20 33° ESE 19:36:18 10° NE
Meteor 1-11 Rocket 4.0 19:26:35 10° SSE 19:31:55 41° E 19:37:09 10° NNE
FALCON 9 DEB 3.9 19:29:10 10° WNW 19:32:07 34° N 19:32:42 31° NNE
MetOp-A 4.0 19:28:21 10° SSE 19:33:40 74° ENE 19:39:02 10° N
OBJECT-B 1.3 19:36:26 41° NE 19:36:26 41° NE 19:39:02 10° N
Cosmos 1992 Rocket 4.5 19:30:53 10° SW 19:36:03 63° WNW 19:41:17 10° NNE
ARGOS 4.2 19:32:46 10° S 19:38:00 48° W 19:43:17 10° NNW
SL-16 R/B 3.3 19:33:20 10° SW 19:38:47 46° NW 19:44:16 10° NNE
Resurs 1-3 4.1 19:38:47 37° E 19:39:11 38° ENE 19:43:16 10° N
SJ 16-02 2.5 19:36:07 10° N 19:39:34 26° NE 19:39:34 26° NE
Okean 1-7 3.0 19:36:23 10° N 19:40:47 83° W 19:45:07 10° S
SeaSat 1 2.5 19:36:07 10° NNE 19:41:05 82° WNW 19:46:00 10° SW
Cosmos 1066 Rocket 4.4 19:37:20 10° N 19:42:56 52° ENE 19:45:41 29° SE
Meteor 1-13 Rocket 4.2 19:37:24 10° N 19:43:23 71° ENE 19:48:31 14° SSE
CZ-4 R/B 4.2 19:41:25 10° SW 19:44:13 19° W 19:47:02 10° NW
USA 234 3.3 19:39:53 21° ENE 19:44:25 58° SE 19:50:51 10° SW
CZ-2C R/B 3.0 19:43:10 10° N 19:48:38 67° WNW 19:53:57 10° SSW
H-2A R/B 4.2 19:44:04 10° SSW 19:48:44 29° W 19:53:25 10° NW
USA 305 3.9 19:45:49 10° WNW 19:49:49 37° N 19:50:56 31° NE
BREEZE-M DEB (TANK) 2.3 19:47:37 10° W 19:50:10 73° N 19:51:09 48° ENE
IRS-1A Rocket 4.2 19:46:43 21° SSE 19:50:33 72° ENE 19:56:06 10° NNW
Cosmos 2322 3.7 19:45:35 10° S 19:51:12 59° ESE 19:56:49 10° NE
SL-4 R/B 1.5 19:50:50 10° WNW 19:54:13 76° NNW 19:54:13 76° NNW
DMSP B5D2-2 4.0 19:49:13 10° NNE 19:54:28 86° WNW 19:59:41 10° SSW
USA 186 3.4 19:56:42 23° NW 19:56:42 23° NW 19:57:53 10° NNW
Cosmos 1869 Rocket 3.4 19:52:44 10° S 19:57:04 78° E 20:01:30 10° NNE
Gbstr 26 Del rocket 3.7 19:54:40 10° WNW 19:59:19 58° N 20:00:59 40° ENE
FALCON 9 DEB 4.1 19:56:10 10° WNW 19:59:24 40° SW 19:59:26 40° SW
SL-8 Rocket 3.9 19:53:19 10° S 19:59:34 90° ESE 20:05:48 10° N
USA 307 3.8 19:57:10 10° WNW 20:01:11 38° N 20:01:49 36° NNE
ATLAS CENTAUR R/B 1.8 19:58:32 10° SW 20:02:04 51° NW 20:03:10 36° N
FALCON 9 DEB 4.3 19:59:38 10° WNW 20:01:56 35° NNW 20:01:56 35° NNW
USA 306 3.7 20:00:34 10° WNW 20:04:35 38° N 20:05:03 37° NNE
FALCON 9 DEB 4.4 20:01:40 10° WNW 20:03:59 33° NNW 20:03:59 33° NNW
Cosmos 1378 3.9 20:01:18 10° N 20:03:53 41° N 20:03:53 41° N
Cosmos 1666 3.5 20:05:40 10° SSW 20:09:17 50° WNW 20:12:56 10° N
USA 308 3.8 20:07:48 10° WNW 20:11:50 39° N 20:12:00 39° NNE
Cosmos 1844 Rocket 3.9 20:07:34 10° NW 20:12:42 39° WSW 20:17:49 10° S
Cosmos 2366 rocket 4.0 20:08:17 10° S 20:14:36 87° W 20:21:01 10° N
SL-08 R/B 4.5 20:11:58 26° SSE 20:15:40 62° E 20:22:03 10° NNE
Cosmos 1777 Rocket 4.3 20:10:58 10° NNW 20:16:11 65° WSW 20:18:17 35° S
SPOT 3 Rocket 3.5 20:18:38 62° ENE 20:18:38 62° ENE 20:23:41 10° N
Okean 3 3.7 20:14:45 10° NNW 20:18:59 65° W 20:19:31 58° SW
Cosmos 2333 4.3 20:16:12 10° SSW 20:21:51 77° WNW 20:27:36 10° NNE
Cosmos 2221 Rocket 4.1 20:19:52 10° N 20:23:10 49° N 20:23:10 49° N
Ariane Rocket 3.3 20:22:15 33° S 20:24:29 63° WSW 20:29:34 10° NNW
Cosmos 2360 Rocket 3.3 20:22:44 10° SW 20:28:06 42° NW 20:33:29 10° NNE
Cosmos 2278 Rocket 2.3 20:25:06 10° NNW 20:30:28 61° NE 20:30:28 61° NE
Cosmos 1727 Rocket 4.0 20:29:18 10° NNW 20:35:29 77° W 20:37:44 42° S
Meteor 2-20 4.4 20:30:41 10° N 20:36:49 83° W 20:38:13 56° S
Cosmos 2333 Rocket 2.3 20:32:32 10° SW 20:38:12 73° WNW 20:43:58 10° NNE
Cosmos 1821 Rocket 4.2 20:41:54 55° NE 20:41:54 55° NE 20:46:49 10° NNE
Resurs 01 Rocket 2.9 20:50:14 37° NNW 20:50:14 37° NNW 20:52:59 10° NNW
Cosmos 1000 Rocket 4.4 20:42:25 10° N 20:48:32 80° NE 20:48:32 80° NE
Cosmos 1943 Rocket 3.9 20:45:19 10° N 20:48:24 21° NNE 20:48:24 21° NNE
Lacrosse 4 Rocket 3.9 20:50:06 10° SW 20:50:57 15° SW 20:50:57 15° SW
COSMOS 2428 3.4 21:02:45 10° SW 21:14:00 10° NNE 21:14:00 10° NNE
OBJECT-B 4.4 21:09:30 10° WNW 21:09:30 10° WNW 21:09:36 10° WNW
Cosmos 2219 Rocket 3.1 21:09:47 10° SW 21:15:08 45° NW 21:20:33 10° NNE
Terra 4.3 21:21:50 14° N 21:21:50 14° N 21:22:31 10° N
SJ 16-02 3.5 21:14:27 10° NW 21:16:35 24° NW 21:16:35 24° NW
USA 234 3.5 21:27:15 60° NNW 21:27:28 61° NNW 21:33:54 10° WSW
USA 281 4.3 21:34:30 34° NNE 21:34:30 34° NNE 21:38:38 10° NNW
Cosmos 2369 Rocket 4.2 21:30:27 10° N 21:32:29 19° N 21:32:29 19° N
Cosmos 2278 Rocket 4.4 22:09:58 10° NW 22:12:20 19° WNW 22:12:20 19° WNW
